Location: College Park
(38.9810°N, 76.9370°W)
Time: 09:36:05
(UTC-04:00)

N. Korean satellite - Pass Details

Date: 08 January 2018
Orbit: 458 x 514 km, 97.2° (Epoch: 26 April)

Event Time Altitude Azimuth Distance (km) Brightness Sun altitude
Rises 18:57:03 0° 201° (SSW) 2,607 10.7 -21.7°
Reaches altitude 10° 18:59:39 10° 221° (SW) 1,720 10.0 -22.2°
Maximum altitude 19:02:16 18° 266° (W) 1,282 9.6 -22.7°
Drops below altitude 10° 19:04:53 10° 311° (NW) 1,711 9.8 -23.2°
Sets 19:07:28 0° 331° (NNW) 2,588 10.5 -23.7°
